Location: *
(60.1759°S, 155.0663°W)
Time: 06:21:55
(UTC+00:00)

Cosmos 1833 Rocket - Pass Details

Date: 17 September 2019
Orbit: 834 x 838 km, 71.0° (Epoch: 16 October)

Event Time Altitude Azimuth Distance (km) Brightness Sun altitude
Exits shadow 13:51:05 - 6° (N) 3,101 5.4 -19.0°
Reaches altitude 10° 13:52:57 10° 14° (NNE) 2,468 5.0 -18.8°
Maximum altitude 13:57:46 30° 72° (ENE) 1,498 4.4 -18.3°
Drops below altitude 10° 14:02:38 10° 130° (SE) 2,492 6.4 -17.7°
Sets 14:05:22 0° 140° (SE) 3,434 7.1 -17.4°
